Location: Unspecified
(0.0000°N, 0.0000°E)
Time: 11:09:39
(UTC+00:00)

STRAND 1 - Visible Passes

Search period start: 15 December 2019 00:00
Search period end: 25 December 2019 00:00
Orbit: 767 x 782 km, 98.5° (Epoch: 14 December)

Date Brightness Start Highest point End Pass type
(mag) Time Alt. Az. Time Alt. Az. Time Alt. Az.
15 Dec ? 18:29:12 10° NE 18:33:32 28° ESE 18:37:54 10° SSE visible
15 Dec ? 20:09:15 10° NW 20:12:27 17° WNW 20:15:39 10° WSW visible
16 Dec ? 19:33:54 11° N 19:38:32 44° WNW 19:43:23 10° SSW visible
17 Dec ? 18:59:33 10° NNE 19:04:37 70° ESE 19:09:43 10° S visible
18 Dec ? 18:26:30 10° NE 18:30:43 26° ESE 18:34:57 10° SSE visible
18 Dec ? 20:06:11 10° NW 20:09:37 18° WNW 20:13:04 10° WSW visible
19 Dec ? 19:30:50 10° N 19:35:43 47° WNW 19:40:38 10° SSW visible
20 Dec ? 18:56:45 10° NNE 19:01:48 64° ESE 19:06:52 10° S visible
21 Dec ? 18:23:48 10° NE 18:27:54 24° ESE 18:32:00 10° SSE visible
21 Dec ? 20:03:10 10° NNW 20:06:48 20° WNW 20:10:27 10° WSW visible
22 Dec ? 19:27:56 10° N 19:32:53 52° WNW 19:37:52 10° SSW visible
23 Dec ? 18:53:57 10° NNE 18:58:58 59° ESE 19:04:01 10° S visible
24 Dec ? 18:21:08 10° NE 18:25:04 23° ESE 18:29:01 10° SSE visible
24 Dec ? 20:00:09 10° NNW 20:03:58 21° WNW 20:07:49 10° SW visible
